This is the latest recevied weather packets stored in our database for station/object WE8L. If no packets are shown the sender has not sent any weather packets the latest 10 day(s).
| Time | Temp. | Humidity | Pressure | Rain* | Wind** | Luminosity | Snow |
|---|---|---|---|---|---|---|---|
| 1777220230 | 12.22° C | 81% | 1021.2 hPa | 0 mm | - | 109 W/m² | - |
| 1777219926 | 11.67° C | 82% | 1021 hPa | 0 mm | - | 84 W/m² | - |
| 1777219623 | 11.67° C | 83% | 1021.2 hPa | 0 mm | - | 87 W/m² | - |
| 1777219320 | 11.67° C | 83% | 1021.3 hPa | 0 mm | - | 78 W/m² | - |
| 1777219016 | 11.67° C | 83% | 1021.4 hPa | 0 mm | - | 75 W/m² | - |
| 1777218711 | 11.67° C | 83% | 1021.3 hPa | 0 mm | - | 73 W/m² | - |
| 1777218407 | 11.67° C | 82% | 1021.3 hPa | 0 mm | - | 71 W/m² | - |
| 1777218104 | 11.67° C | 82% | 1021.3 hPa | 0 mm | - | 70 W/m² | - |
| 1777217799 | 11.67° C | 83% | 1021.3 hPa | 0 mm | - | 68 W/m² | - |
| 1777217495 | 11.67° C | 83% | 1021.3 hPa | 0 mm | - | 71 W/m² | - |
| 1777217191 | 11.67° C | 84% | 1020.9 hPa | 0 mm | - | 72 W/m² | - |
| 1777216888 | 11.11° C | 83% | 1020.9 hPa | 0 mm | - | 69 W/m² | - |
| 1777216585 | 11.11° C | 83% | 1020.8 hPa | 0 mm | - | 75 W/m² | - |
| 1777216281 | 11.67° C | 83% | 1021 hPa | 0 mm | - | 78 W/m² | - |
| 1777215980 | 11.11° C | 83% | 1020.9 hPa | 0 mm | - | 75 W/m² | - |
| 1777215676 | 11.11° C | 84% | 1020.8 hPa | 0 mm | - | 64 W/m² | - |
| 1777215376 | 11.11° C | 84% | 1021 hPa | 0 mm | - | 61 W/m² | - |
| 1777215073 | 11.11° C | 84% | 1020.9 hPa | 0 mm | - | 61 W/m² | - |
| 1777214773 | 11.11° C | 84% | 1020.8 hPa | 0 mm | - | 59 W/m² | - |
| 1777214467 | 11.11° C | 84% | 1021 hPa | 0 mm | - | 51 W/m² | - |
| 1777214162 | 11.11° C | 84% | 1021.3 hPa | 0 mm | - | 47 W/m² | - |
| 1777213856 | 11.11° C | 84% | 1020.9 hPa | 0 mm | - | 51 W/m² | - |
| 1777213551 | 10.56° C | 84% | 1020.6 hPa | 0 mm | - | 53 W/m² | - |
| 1777213249 | 10.56° C | 84% | 1020.6 hPa | 0 mm | - | 51 W/m² | - |
| 1777212944 | 10.56° C | 85% | 1020.7 hPa | 0 mm | - | 54 W/m² | - |
* Rain latest hour (hover to see other rain measurements)
** Current wind speed in m/s (hover to see current wind gust speed)